sat.trackr.live / text

‹ back to catalog

2025-155G

NORAD 64882 · 2025-155G

PAYLOAD ACTIVE UNKNOWN

§ Identity

Operator
Country
TBD
Launch date
2025-07-25
Launch site
VOSTO
Launch vehicle
Mass (kg)
RCS (m²)

External: N2YO · Heavens-Above · Gunter

§ Orbital elements

Epoch: 2026-09-21T20:58:01.612128Z

Period
94.06 min
Inclination
97.4699°
Eccentricity
0.0006782
Mean motion
15.30984527 rev/d
Perigee alt
468.2 km
Apogee alt
477.5 km
Semi-major
6,851.0 km
B*
2.1324e-4
RAAN
233.8792°
Arg perigee
178.1526°
Mean anomaly
181.9741°
Rev number
9,554

§ Raw data

2025-155G1 64882U 25155G   26264.87362977  .00006308  00000+0  21324-3 0  99962 64882  97.4699 233.8792 0006782 178.1526 181.9741 15.30984527 95549

JSON: /api/v1/satellites/64882 · /tle

For live sub-satellite position, see the globe view (requires WebGL).

§ Visibility from observer

Set your observer location to see the next 7 days of passes ≥ 10°. The values pass through the URL so the page stays shareable.

No JS? Fill the form by hand. The geolocation button needs JavaScript.

§ Radio — SatNOGS DB

ModeDescriptionDownlinkUplink
LoRa LoRa telemetry 435.575 MHz

1 transmitter · refreshed weekly from db.satnogs.org